Sidney, NE

11:42 PM MDT on August 29, 2016 (GMT -0600)
Sidney Municipal

Weather History for KSNY - June, 2013

Change the Weather History Date:

Sunday, June 16, 2013

  Actual Average Record
Temperature  
Mean Temperature 74 °F 68 °F  
Max Temperature 95 °F 82 °F 95 °F (2013)
Min Temperature 53 °F 53 °F 35 °F (1981)
Degree Days  
Heating Degree Days 0 2  
Month to date heating degree days 36 47  
Since 1 June heating degree days 36 47  
Since 1 July heating degree days 6676 6209  
Cooling Degree Days 9 4  
Month to date cooling degree days 58 47  
Year to date cooling degree days 91 69  
Since 1 June cooling degree days 58 47  
Growing Degree Days 24 (Base 50)    
Moisture  
Dew Point 49 °F    
Average Humidity 54    
Maximum Humidity 100    
Minimum Humidity 8    
Precipitation  
Precipitation 0.00 in 0.11 in 1.19 in (2011)
Month to date precipitation 0.13 1.80  
Year to date precipitation 5.91 8.56  
Sea Level Pressure  
Sea Level Pressure 29.96 in    
Wind  
Wind Speed 14 mph (SSE)    
Max Wind Speed 31 mph    
Max Gust Speed 38 mph    
Visibility 8 miles    
Events Fog    
T = Trace of Precipitation, MM = Missing Value Source: NWS Daily Summary

Daily Weather History Graph

Daily Weather History Graph

Search for Another Location

Airport or City:

Trip Planner

Search our weather history database for the weather conditions in past years. The results will help you decide how hot, cold, wet, or windy it might be!

Date:

Astronomy

Jun. 16, 2013 Rise Set
Actual Time 5:18 AM MDT 8:26 PM MDT
Civil Twilight 4:45 AM MDT 9:00 PM MDT
Nautical Twilight 4:02 AM MDT 9:43 PM MDT
Astronomical Twilight 3:10 AM MDT 10:34 PM MDT
Moon 1:01 PM MDT (6/16) 12:28 AM MDT (6/16)
Length of Visible Light 16h 15m
Length of Day
15h 07m
Waxing Crescent, 50% of the Moon is Illuminated
Jun 16
Waxing Crescent
Jun 23
Full
Jun 29
Last Quarter
Jul 8
New
Jul 15
First Quarter

Hourly Weather History & Observations

Time (MDT) Temp. Dew Point Humidity Pressure Visibility Wind Dir Wind Speed Gust Speed Precip Events Conditions
12:53 AM 63.0 °F 57.0 °F 81% 29.96 in 10.0 mi SE 10.4 mph - N/A   Clear
1:53 AM 62.1 °F 57.0 °F 84% 29.96 in 10.0 mi SE 9.2 mph - N/A   Clear
2:53 AM 60.1 °F 57.0 °F 90% 29.96 in 10.0 mi ESE 6.9 mph - N/A   Clear
3:53 AM 57.9 °F 55.0 °F 90% 29.97 in 7.0 mi SE 5.8 mph - N/A   Partly Cloudy
4:53 AM 57.0 °F 55.9 °F 96% 29.97 in 4.0 mi SSE 3.5 mph - N/A   Clear
5:16 AM 55.4 °F 55.4 °F 100% 30.10 in 2.0 mi SSE 3.5 mph - N/A   Clear
5:23 AM 55.4 °F 55.4 °F 100% 30.10 in 1.5 mi SSE 4.6 mph - N/A   Clear
5:44 AM 55.4 °F 53.6 °F 94% 30.11 in 0.8 mi South 4.6 mph - N/A   Clear
5:53 AM 54.0 °F 54.0 °F 100% 29.99 in 0.2 mi SSE 5.8 mph - N/A Fog Fog
6:01 AM 55.4 °F 53.6 °F 94% 30.11 in 1.5 mi SE 5.8 mph - N/A   Partly Cloudy
6:11 AM 57.2 °F 55.4 °F 94% 30.11 in 2.5 mi SE 8.1 mph - N/A   Partly Cloudy
6:26 AM 60.8 °F 59.0 °F 94% 30.11 in 3.0 mi SSE 10.4 mph - N/A   Clear
6:53 AM 62.1 °F 60.1 °F 93% 29.98 in 4.0 mi South 10.4 mph - N/A   Clear
7:53 AM 68.0 °F 55.0 °F 63% 29.96 in 10.0 mi SSW 18.4 mph - N/A   Clear
8:53 AM 73.0 °F 52.0 °F 48% 29.94 in 10.0 mi SSW 12.7 mph - N/A   Clear
9:53 AM 79.0 °F 48.9 °F 35% 29.91 in 10.0 mi SSW 20.7 mph 27.6 mph N/A   Clear
10:53 AM 82.9 °F 50.0 °F 32% 29.90 in 10.0 mi SW 13.8 mph 23.0 mph N/A   Clear
11:53 AM 88.0 °F 46.9 °F 24% 29.88 in 10.0 mi WSW 15.0 mph 20.7 mph N/A   Clear
12:53 PM 90.0 °F 37.9 °F 16% 29.86 in 10.0 mi West 16.1 mph 25.3 mph N/A   Clear
1:53 PM 93.0 °F 32.0 °F 12% 29.83 in 10.0 mi WNW 17.3 mph 23.0 mph N/A   Clear
2:53 PM 93.9 °F 25.0 °F 8% 29.83 in 10.0 mi NW 17.3 mph 28.8 mph N/A   Clear
3:53 PM 93.0 °F 25.0 °F 9% 29.83 in 10.0 mi NNW 20.7 mph 26.5 mph N/A   Clear
4:53 PM 91.0 °F 28.9 °F 11% 29.83 in 10.0 mi North 15.0 mph 25.3 mph N/A   Clear
5:53 PM 88.0 °F 28.0 °F 12% 29.85 in 10.0 mi North 19.6 mph 24.2 mph N/A   Clear
6:53 PM 80.1 °F 50.0 °F 35% 29.86 in 10.0 mi East 27.6 mph 35.7 mph N/A   Clear
7:53 PM 66.9 °F 52.0 °F 59% 29.93 in 10.0 mi East 25.3 mph 33.4 mph N/A   Clear
8:53 PM 62.1 °F 52.0 °F 70% 29.97 in 10.0 mi East 18.4 mph 23.0 mph N/A   Clear
9:53 PM 61.0 °F 54.0 °F 78% 29.97 in 10.0 mi East 15.0 mph - N/A   Clear
10:53 PM 57.9 °F 54.0 °F 87% 29.98 in 10.0 mi ESE 9.2 mph - N/A   Clear
11:53 PM 55.9 °F 53.1 °F 90% 29.99 in 10.0 mi ESE 4.6 mph - N/A   Clear